CW9386 Weather Reports


time (UTC)temp
C
wind
direction
speed
KPH
gust
KPH
rain 1hr
cm
rain 24hr
cm
rain mn
cm
humidity
%
barometer
mb
20260509003656 31 329 6.4 12.9 0.00 0.00 0.00 7 1011.6
20260509002652 31 12 3.2 19.3 0.00 0.00 0.00 8 1011.7
20260509000657 31 302 1.6 22.5 0.00 0.00 0.00 8 1011.7
20260508235653 30 325 1.6 24.1 0.00 0.00 0.00 8 1011.0
20260508233708 31 115 8.0 14.5 0.00 0.00 0.00 8 1011.0
20260508232702 31 347 11.3 17.7 0.00 0.00 0.00 8 1011.0
20260508231658 31 82 6.4 22.5 0.00 0.00 0.00 8 1011.0
20260508225707 31 11 9.7 17.7 0.00 0.00 0.00 8 1011.2
20260508224704 31 360 3.2 20.9 0.00 0.00 0.00 8 1011.2
20260508223701 31 342 19.3 27.4 0.00 0.00 0.00 8 1011.2
20260508222650 31 320 19.3 29.0 0.00 0.00 0.00 8 1011.3
20260508220702 31 336 3.2 24.1 0.00 0.00 0.00 8 1011.4
20260508215656 31 301 8.0 24.1 0.00 0.00 0.00 8 1011.4
20260508214650 31 281 3.2 11.3 0.00 0.00 0.00 8 1011.6
20260508213708 31 206 4.8 19.3 0.00 0.00 0.00 9 1011.7
20260508212705 31 13 6.4 16.1 0.00 0.00 0.00 9 1011.8
20260508211655 31 15 6.4 22.5 0.00 0.00 0.00 9 1011.9
20260508210648 30 346 6.4 24.1 0.00 0.00 0.00 9 1012.1
20260508205703 30 34 1.6 22.5 0.00 0.00 0.00 9 1012.3
20260508204656 30 236 6.4 12.9 0.00 0.00 0.00 9 1012.4
20260508203649 30 291 9.7 24.1 0.00 0.00 0.00 9 1012.5
20260508202648 30 46 14.5 22.5 0.00 0.00 0.00 8 1012.6
20260508201658 30 318 0.0 20.9 0.00 0.00 0.00 8 1012.8
20260508200657 30 215 9.7 24.1 0.00 0.00 0.00 7 1012.8
20260508194704 30 343 4.8 20.9 0.00 0.00 0.00 8 1013.2
20260508193658 30 11 8.0 19.3 0.00 0.00 0.00 8 1013.3
20260508192647 30 348 16.1 24.1 0.00 0.00 0.00 8 1013.2
20260508191703 30 15 4.8 20.9 0.00 0.00 0.00 9 1013.4
20260508190654 30 28 9.7 16.1 0.00 0.00 0.00 9 1013.5
20260508185651 30 360 1.6 4.8 0.00 0.00 0.00 12 1013.5
20260508184657 29 306 1.6 14.5 0.00 0.00 0.00 12 1013.6
20260508182648 28 67 4.8 11.3 0.00 0.00 0.00 14 1013.8
20260508181646 28 135 1.6 16.1 0.00 0.00 0.00 14 1014.1
20260508180701 27 105 0.0 12.9 0.00 0.00 0.00 14 1014.2
20260508175647 27 360 1.6 14.5 0.00 0.00 0.00 15 1014.4
20260508174700 26 344 0.0 12.9 0.00 0.00 0.00 16 1014.5
20260508173656 26 321 11.3 17.7 0.00 0.00 0.00 16 1014.6
20260508172650 26 256 1.6 14.5 0.00 0.00 0.00 16 1014.7
20260508171648 25 304 8.0 14.5 0.00 0.00 0.00 16 1014.8
20260508170645 25 293 3.2 12.9 0.00 0.00 0.00 17 1015.0
20260508165654 25 360 4.8 12.9 0.00 0.00 0.00 17 1015.2
20260508164647 25 350 3.2 14.5 0.00 0.00 0.00 18 1015.3
20260508163642 24 347 9.7 12.9 0.00 0.00 0.00 18 1015.3
20260508161656 23 338 4.8 11.3 0.00 0.00 0.00 19 1015.4
20260508160653 22 340 3.2 8.0 0.00 0.00 0.00 20 1015.5
20260508155653 22 360 4.8 8.0 0.00 0.00 0.00 21 1015.5
20260508154703 21 338 6.4 11.3 0.00 0.00 0.00 23 1015.4
20260508153656 21 355 6.4 11.3 0.00 0.00 0.00 24 1015.5
20260508145642 18 342 8.0 12.9 0.00 0.00 0.00 27 1015.6
20260508144659 18 11 6.4 11.3 0.00 0.00 0.00 28 1015.6
20260508143653 18 5 6.4 12.9 0.00 0.00 0.00 28 1015.6
20260508141641 17 349 8.0 14.5 0.00 0.00 0.00 30 1015.6
20260508135647 17 349 8.0 11.3 0.00 0.00 0.00 32 1015.7
20260508133645 15 360 1.6 4.8 0.00 0.00 0.00 37 1015.4
20260508132657 14 21 0.0 1.6 0.00 0.00 0.00 39 1015.2
20260508131648 13 74 0.0 4.8 0.00 0.00 0.00 40 1015.3
20260508130650 13 46 1.6 6.4 0.00 0.00 0.00 39 1015.1
20260508125642 13 9 3.2 8.0 0.00 0.00 0.00 38 1015.2
20260508124658 13 5 4.8 9.7 0.00 0.00 0.00 38 1015.0
20260508123649 14 19 1.6 4.8 0.00 0.00 0.00 37 1014.7
20260508122643 14 16 0.0 3.2 0.00 0.00 0.00 37 1013.8
20260508121658 14 17 1.6 4.8 0.00 0.00 0.00 37 1013.7
20260508120654 15 18 0.0 1.6 0.00 0.00 0.00 36 1013.8
20260508115648 15 17 0.0 1.6 0.00 0.00 0.00 35 1013.8
20260508114639 15 18 1.6 4.8 0.00 0.00 0.00 35 1013.7
20260508113652 15 20 1.6 3.2 0.00 0.00 0.00 35 1013.7
20260508112649 15 18 0.0 4.8 0.00 0.00 0.00 35 1013.7
20260508111639 16 19 0.0 4.8 0.00 0.00 0.00 34 1013.7
20260508110654 16 20 3.2 4.8 0.00 0.00 0.00 34 1013.8
20260508105650 16 18 1.6 6.4 0.00 0.00 0.00 34 1013.7
20260508103641 16 360 4.8 11.3 0.00 0.00 0.00 36 1013.6
20260508102655 16 17 3.2 16.1 0.00 0.00 0.00 37 1013.6
20260508101646 16 16 8.0 14.5 0.00 0.00 0.00 38 1013.6
20260508100647 15 360 9.7 14.5 0.00 0.00 0.00 38 1013.6
20260508094651 14 15 6.4 11.3 0.00 0.00 0.00 38 1013.9
20260508093642 14 16 3.2 8.0 0.00 0.00 0.00 37 1014.0
20260508092642 13 16 1.6 4.8 0.00 0.00 0.00 37 1014.1
20260508091636 13 18 1.6 4.8 0.00 0.00 0.00 37 1014.3
20260508090649 13 17 1.6 6.4 0.00 0.00 0.00 36 1014.3
20260508085640 13 16 1.6 6.4 0.00 0.00 0.00 35 1014.1
20260508084651 13 15 1.6 4.8 0.00 0.00 0.00 35 1014.1
20260508083649 13 15 1.6 4.8 0.00 0.00 0.00 35 1014.2
20260508081638 13 13 0.0 3.2 0.00 0.00 0.00 35 1014.3
20260508080646 13 14 3.2 4.8 0.00 0.00 0.00 36 1014.3
20260508074646 13 15 1.6 4.8 0.00 0.00 0.00 34 1014.5
20260508073645 14 13 1.6 4.8 0.00 0.00 0.00 34 1014.5
20260508072653 14 15 0.0 6.4 0.00 0.00 0.00 33 1014.6
20260508071653 14 15 0.0 8.0 0.00 0.00 0.00 33 1014.6
20260508070648 15 17 1.6 6.4 0.00 0.00 0.00 33 1014.6
20260508065644 15 14 4.8 8.0 0.00 0.00 0.00 33 1014.7
20260508063644 15 13 1.6 4.8 0.00 0.00 0.00 32 1014.6
20260508062651 15 14 3.2 6.4 0.00 0.00 0.00 32 1014.6
20260508061643 15 15 3.2 6.4 0.00 0.00 0.00 32 1014.7
20260508060645 15 13 4.8 4.8 0.00 0.00 0.00 31 1014.6
20260508055643 15 13 1.6 4.8 0.00 0.00 0.00 31 1014.5
20260508054644 15 13 1.6 4.8 0.00 0.00 0.00 31 1014.4
20260508053634 15 12 3.2 4.8 0.00 0.00 0.00 31 1014.5
20260508052637 15 11 1.6 6.4 0.00 0.00 0.00 31 1014.5
20260508045647 16 14 3.2 8.0 0.00 0.00 0.00 30 1014.7
20260508044637 16 15 4.8 6.4 0.00 0.00 0.00 30 1014.6
20260508043646 16 15 1.6 4.8 0.00 0.00 0.00 29 1014.6
20260508042641 17 15 4.8 6.4 0.00 0.00 0.00 29 1014.7
20260508041640 17 14 1.6 3.2 0.00 0.00 0.00 29 1014.7
20260508035645 17 138 1.6 9.7 0.00 0.00 0.00 28 1014.4
20260508034638 17 121 4.8 9.7 0.00 0.00 0.00 27 1014.3
20260508033636 18 132 4.8 11.3 0.00 0.00 0.00 26 1014.3
20260508032649 18 105 6.4 9.7 0.00 0.00 0.00 25 1014.0
20260508031645 20 128 3.2 6.4 0.00 0.00 0.00 23 1014.0
20260508030642 20 126 0.0 4.8 0.00 0.00 0.00 21 1013.9
20260508025649 21 119 1.6 3.2 0.00 0.00 0.00 20 1013.8
20260508024645 22 128 3.2 4.8 0.00 0.00 0.00 18 1013.7
20260508023644 23 191 0.0 3.2 0.00 0.00 0.00 17 1013.6
20260508022637 23 24 3.2 4.8 0.00 0.00 0.00 16 1013.4
20260508021635 24 23 3.2 4.8 0.00 0.00 0.00 15 1013.4
20260508020634 25 205 0.0 0.0 0.00 0.00 0.00 15 1013.3
20260508015649 25 209 0.0 0.0 0.00 0.00 0.00 14 1013.2
20260508014646 26 96 0.0 3.2 0.00 0.00 0.00 13 1013.3
20260508013640 26 221 0.0 1.6 0.00 0.00 0.00 13 1013.2
20260508012637 26 221 1.6 4.8 0.00 0.00 0.00 13 1013.1
20260508011630 26 237 4.8 9.7 0.00 0.00 0.00 13 1013.2
20260508005639 27 276 3.2 9.7 0.00 0.00 0.00 12 1013.3
20260508004629 27 250 6.4 11.3 0.00 0.00 0.00 12 1013.3